| time (UTC) | temp C | wind direction | speed KPH | gust KPH | rain 1hr cm | rain 24hr cm | rain mn cm | humidity % | barometer mb |
| 20260506002223 | 26 | 5 | 3.2 | 8.0 | 0.00 | 0.00 | 0.00 | 33 | 1007.3 |
| 20260506001249 | 26 | 11 | 3.2 | 8.0 | 0.00 | 0.00 | 0.00 | 32 | 1007.4 |
| 20260505232859 | 26 | 49 | 3.2 | 12.9 | 0.00 | 0.00 | 0.00 | 35 | 1007.2 |
| 20260505231847 | 26 | 325 | 4.8 | 12.9 | 0.00 | 0.00 | 0.00 | 31 | 1007.3 |
| 20260505230908 | 26 | 344 | 4.8 | 11.3 | 0.00 | 0.00 | 0.00 | 31 | 1007.3 |
| 20260505225904 | 26 | 351 | 4.8 | 12.9 | 0.00 | 0.00 | 0.00 | 30 | 1007.4 |
| 20260505224926 | 26 | 10 | 3.2 | 14.5 | 0.00 | 0.00 | 0.00 | 32 | 1007.5 |
| 20260505223947 | 26 | 319 | 4.8 | 14.5 | 0.00 | 0.00 | 0.00 | 33 | 1007.6 |
| 20260505222942 | 26 | 60 | 3.2 | 12.9 | 0.00 | 0.00 | 0.00 | 36 | 1007.5 |
| 20260505221911 | 26 | 19 | 4.8 | 12.9 | 0.00 | 0.00 | 0.00 | 33 | 1007.6 |
| 20260505220857 | 26 | 69 | 6.4 | 12.9 | 0.00 | 0.00 | 0.00 | 34 | 1007.7 |
| 20260505214748 | 25 | 334 | 4.8 | 16.1 | 0.00 | 0.00 | 0.00 | 39 | 1008.0 |
| 20260505212657 | 25 | 46 | 4.8 | 14.5 | 0.00 | 0.00 | 0.00 | 40 | 1008.0 |
| 20260505211637 | 25 | 26 | 4.8 | 14.5 | 0.00 | 0.00 | 0.00 | 38 | 1008.1 |
| 20260505205515 | 24 | 288 | 6.4 | 17.7 | 0.00 | 0.00 | 0.00 | 40 | 1008.5 |
| 20260505204503 | 24 | 18 | 3.2 | 12.9 | 0.00 | 0.00 | 0.00 | 44 | 1008.4 |
| 20260505203449 | 23 | 355 | 3.2 | 9.7 | 0.00 | 0.00 | 0.00 | 41 | 1008.6 |
| 20260505202452 | 23 | 13 | 1.6 | 8.0 | 0.00 | 0.00 | 0.00 | 42 | 1008.6 |
| 20260505201429 | 23 | 330 | 4.8 | 14.5 | 0.00 | 0.00 | 0.00 | 40 | 1008.6 |
| 20260505200449 | 23 | 84 | 4.8 | 14.5 | 0.00 | 0.00 | 0.00 | 42 | 1008.8 |
| 20260505195431 | 23 | 335 | 3.2 | 9.7 | 0.00 | 0.00 | 0.00 | 44 | 1008.6 |
| 20260505194456 | 22 | 313 | 3.2 | 14.5 | 0.00 | 0.00 | 0.00 | 44 | 1008.6 |
| 20260505193443 | 22 | 40 | 1.6 | 14.5 | 0.00 | 0.00 | 0.00 | 45 | 1008.6 |
| 20260505192500 | 21 | 172 | 3.2 | 11.3 | 0.00 | 0.00 | 0.00 | 53 | 1008.9 |
| 20260505191506 | 21 | 311 | 1.6 | 9.7 | 0.00 | 0.00 | 0.00 | 50 | 1008.9 |
| 20260505190454 | 21 | 300 | 4.8 | 9.7 | 0.00 | 0.00 | 0.00 | 54 | 1009.1 |
| 20260505185440 | 21 | 281 | 3.2 | 9.7 | 0.00 | 0.00 | 0.00 | 52 | 1009.1 |
| 20260505184425 | 21 | 251 | 3.2 | 9.7 | 0.00 | 0.00 | 0.00 | 53 | 1009.1 |
| 20260505183450 | 20 | 302 | 3.2 | 14.5 | 0.00 | 0.00 | 0.00 | 51 | 1009.2 |
| 20260505182443 | 20 | 261 | 3.2 | 14.5 | 0.00 | 0.00 | 0.00 | 56 | 1009.2 |
| 20260505181442 | 19 | 273 | 4.8 | 12.9 | 0.00 | 0.00 | 0.00 | 57 | 1009.3 |
| 20260505180431 | 19 | 298 | 4.8 | 12.9 | 0.00 | 0.00 | 0.00 | 59 | 1009.3 |
| 20260505175357 | 19 | 303 | 4.8 | 9.7 | 0.00 | 0.00 | 0.00 | 57 | 1008.8 |
| 20260505174357 | 19 | 17 | 1.6 | 12.9 | 0.00 | 0.00 | 0.00 | 56 | 1008.8 |
| 20260505173352 | 18 | 298 | 3.2 | 12.9 | 0.00 | 0.00 | 0.00 | 61 | 1008.9 |
| 20260505170041 | 17 | 279 | 4.8 | 12.9 | 0.00 | 0.00 | 0.00 | 60 | 1008.9 |
| 20260505165043 | 17 | 343 | 4.8 | 11.3 | 0.00 | 0.00 | 0.00 | 61 | 1008.5 |
| 20260505164016 | 17 | 256 | 4.8 | 9.7 | 0.00 | 0.00 | 0.00 | 62 | 1008.5 |
| 20260505162957 | 17 | 257 | 3.2 | 9.7 | 0.00 | 0.00 | 0.00 | 64 | 1008.6 |
| 20260505162020 | 17 | 286 | 3.2 | 9.7 | 0.00 | 0.00 | 0.00 | 64 | 1008.7 |
| 20260505152632 | 15 | 261 | 6.4 | 11.3 | 0.00 | 0.00 | 0.00 | 72 | 1008.5 |
| 20260505151606 | 15 | 214 | 8.0 | 14.5 | 0.00 | 0.00 | 0.00 | 75 | 1008.4 |
| 20260505150546 | 14 | 246 | 8.0 | 14.5 | 0.00 | 0.00 | 0.00 | 79 | 1008.6 |
| 20260505140318 | 10 | 215 | 3.2 | 6.4 | 0.00 | 0.00 | 0.00 | 90 | 1008.3 |
| 20260505123710 | 10 | 202 | 3.2 | 4.8 | 0.00 | 0.00 | 0.00 | 88 | 1006.8 |
| 20260505121533 | 11 | 200 | 3.2 | 4.8 | 0.00 | 0.00 | 0.00 | 87 | 1006.6 |
| 20260505120539 | 11 | 201 | 3.2 | 4.8 | 0.00 | 0.00 | 0.00 | 86 | 1006.3 |
| 20260505114421 | 12 | 212 | 0.0 | 3.2 | 0.00 | 0.00 | 0.00 | 86 | 1006.0 |
| 20260505113445 | 12 | 227 | 3.2 | 4.8 | 0.00 | 0.00 | 0.00 | 86 | 1006.0 |
| 20260505112506 | 12 | 200 | 1.6 | 4.8 | 0.00 | 0.00 | 0.00 | 85 | 1006.1 |
| 20260505111446 | 12 | 200 | 3.2 | 6.4 | 0.00 | 0.00 | 0.00 | 85 | 1006.1 |
| 20260505110449 | 12 | 211 | 3.2 | 6.4 | 0.00 | 0.00 | 0.00 | 85 | 1006.0 |
| 20260505101239 | 11 | 200 | 6.4 | 8.0 | 0.00 | 0.00 | 0.00 | 85 | 1005.6 |
| 20260505100303 | 11 | 190 | 6.4 | 11.3 | 0.00 | 0.00 | 0.00 | 86 | 1005.6 |
| 20260505095301 | 11 | 205 | 6.4 | 11.3 | 0.00 | 0.00 | 0.00 | 86 | 1005.7 |
| 20260505094325 | 10 | 207 | 3.2 | 6.4 | 0.00 | 0.00 | 0.00 | 87 | 1005.7 |
| 20260505093305 | 10 | 219 | 3.2 | 4.8 | 0.00 | 0.00 | 0.00 | 85 | 1005.6 |
| 20260505092239 | 10 | 196 | 3.2 | 6.4 | 0.00 | 0.00 | 0.00 | 85 | 1005.8 |
| 20260505091229 | 10 | 193 | 3.2 | 6.4 | 0.00 | 0.00 | 0.00 | 85 | 1005.8 |
| 20260505090204 | 10 | 218 | 3.2 | 6.4 | 0.00 | 0.00 | 0.00 | 84 | 1005.6 |
| 20260505085216 | 10 | 183 | 3.2 | 4.8 | 0.00 | 0.00 | 0.00 | 83 | 1005.6 |
| 20260505084157 | 10 | 197 | 4.8 | 6.4 | 0.00 | 0.00 | 0.00 | 81 | 1005.6 |
| 20260505083141 | 11 | 192 | 3.2 | 6.4 | 0.00 | 0.00 | 0.00 | 79 | 1005.7 |
| 20260505082129 | 12 | 220 | 3.2 | 6.4 | 0.00 | 0.00 | 0.00 | 77 | 1005.5 |
| 20260505081148 | 12 | 171 | 1.6 | 6.4 | 0.00 | 0.00 | 0.00 | 76 | 1005.6 |
| 20260505080116 | 12 | 209 | 1.6 | 4.8 | 0.00 | 0.00 | 0.00 | 76 | 1005.3 |
| 20260505075107 | 13 | 222 | 1.6 | 8.0 | 0.00 | 0.00 | 0.00 | 74 | 1005.3 |
| 20260505074103 | 13 | 186 | 1.6 | 8.0 | 0.00 | 0.00 | 0.00 | 73 | 1005.3 |
| 20260505071953 | 13 | 290 | 3.2 | 6.4 | 0.00 | 0.00 | 0.00 | 71 | 1004.9 |
| 20260505071005 | 13 | 257 | 0.0 | 4.8 | 0.00 | 0.00 | 0.00 | 72 | 1005.0 |
| 20260505070024 | 13 | 248 | 1.6 | 8.0 | 0.00 | 0.00 | 0.00 | 72 | 1005.0 |
| 20260505065027 | 14 | 270 | 4.8 | 8.0 | 0.00 | 0.00 | 0.00 | 67 | 1004.8 |
| 20260505062903 | 16 | 276 | 0.0 | 4.8 | 0.00 | 0.00 | 0.00 | 61 | 1004.7 |
| 20260505061831 | 16 | 269 | 0.0 | 3.2 | 0.00 | 0.00 | 0.00 | 62 | 1004.7 |
| 20260505060830 | 15 | 144 | 0.0 | 6.4 | 0.00 | 0.00 | 0.00 | 64 | 1004.8 |
| 20260505052451 | 17 | 292 | 11.3 | 17.7 | 0.00 | 0.00 | 0.00 | 58 | 1004.2 |
| 20260505051506 | 17 | 271 | 9.7 | 17.7 | 0.00 | 0.00 | 0.00 | 58 | 1004.1 |
| 20260505040257 | 18 | 306 | 12.9 | 25.7 | 0.00 | 0.00 | 0.00 | 53 | 1003.6 |
| 20260505035230 | 19 | 306 | 17.7 | 25.7 | 0.00 | 0.00 | 0.00 | 50 | 1003.9 |
| 20260505034210 | 19 | 316 | 16.1 | 22.5 | 0.00 | 0.00 | 0.00 | 51 | 1003.8 |
| 20260505033209 | 18 | 295 | 12.9 | 19.3 | 0.00 | 0.00 | 0.00 | 51 | 1003.7 |
| 20260505032211 | 19 | 309 | 14.5 | 19.3 | 0.00 | 0.00 | 0.00 | 49 | 1003.7 |
| 20260505030041 | 20 | 310 | 14.5 | 24.1 | 0.00 | 0.00 | 0.00 | 47 | 1003.4 |
| 20260505025055 | 21 | 316 | 16.1 | 20.9 | 0.00 | 0.00 | 0.00 | 45 | 1003.4 |
| 20260505024051 | 21 | 297 | 14.5 | 22.5 | 0.00 | 0.00 | 0.00 | 45 | 1003.2 |
| 20260505023051 | 21 | 306 | 12.9 | 22.5 | 0.00 | 0.00 | 0.00 | 43 | 1003.3 |
| 20260505022023 | 22 | 306 | 14.5 | 22.5 | 0.00 | 0.00 | 0.00 | 44 | 1003.1 |
| 20260505021041 | 22 | 315 | 14.5 | 25.7 | 0.00 | 0.00 | 0.00 | 44 | 1003.1 |
| 20260505020040 | 22 | 321 | 16.1 | 25.7 | 0.00 | 0.00 | 0.00 | 43 | 1003.1 |
| 20260505015056 | 23 | 306 | 16.1 | 22.5 | 0.00 | 0.00 | 0.00 | 42 | 1003.6 |
| 20260505014104 | 23 | 315 | 16.1 | 27.4 | 0.00 | 0.00 | 0.00 | 43 | 1003.7 |
| 20260505013118 | 23 | 311 | 17.7 | 27.4 | 0.00 | 0.00 | 0.00 | 41 | 1003.4 |
| 20260505012053 | 23 | 322 | 16.1 | 25.7 | 0.00 | 0.00 | 0.00 | 40 | 1003.5 |
| 20260505011021 | 24 | 328 | 16.1 | 22.5 | 0.00 | 0.00 | 0.00 | 40 | 1003.5 |
| 20260505010012 | 25 | 330 | 12.9 | 19.3 | 0.00 | 0.00 | 0.00 | 38 | 1003.8 |
| 20260505004947 | 25 | 332 | 11.3 | 19.3 | 0.00 | 0.00 | 0.00 | 37 | 1003.9 |
| 20260505003914 | 25 | 328 | 9.7 | 20.9 | 0.00 | 0.00 | 0.00 | 33 | 1003.9 |
| 20260505002929 | 25 | 326 | 11.3 | 20.9 | 0.00 | 0.00 | 0.00 | 29 | 1004.0 |